TimeMST,TemperatureF,Dew PointF,Humidity,Sea Level PressureIn,VisibilityMPH,Wind Direction,Wind SpeedMPH,Gust SpeedMPH,PrecipitationIn,Events,Conditions,WindDirDegrees,DateUTC
1:50 AM,63,59,83,29.92,2,SSE,4.5,,,,Scattered Clouds,160,2012-12-27 08:50:00
6:56 AM,55.4,51.8,88,29.96,8.0,SSE,4.6,-,N/A,,Mostly Cloudy,160,2012-12-27 13:56:00
7:40 AM,55.4,51.8,88,30.01,10.0,SSE,4.6,-,N/A,,Mostly Cloudy,150,2012-12-27 14:40:00
7:50 AM,61,58,85,29.95,9,South,4.5,,,,Partly Cloudy,180,2012-12-27 14:50:00
8:42 AM,60.8,55.4,82,29.98,10.0,South,5.8,-,N/A,,Mostly Cloudy,170,2012-12-27 15:42:00
9:41 AM,64.4,51.8,64,29.98,10.0,SE,6.9,-,N/A,,Mostly Cloudy,140,2012-12-27 16:41:00
10:47 AM,69.8,44.6,40,30.04,10.0,SW,4.6,-,N/A,,Mostly Cloudy,220,2012-12-27 17:47:00
10:50 AM,72,60,56,29.97,19,South,6.7,,,,Scattered Clouds,180,2012-12-27 17:50:00
11:46 AM,73.4,37.4,27,29.97,10.0,SW,4.6,-,N/A,,Mostly Cloudy,220,2012-12-27 18:46:00
12:52 PM,75.2,37.4,25,29.93,10.0,Calm,Calm,-,N/A,,Mostly Cloudy,0,2012-12-27 19:52:00
1:50 PM,77,61,48,29.91,19,NW,8.9,,,,Scattered Clouds,320,2012-12-27 20:50:00
1:53 PM,75.2,41.0,29,29.96,10.0,North,9.2,-,N/A,,Mostly Cloudy,350,2012-12-27 20:53:00
2:44 PM,75.2,37.4,25,29.90,12.0,North,6.9,-,N/A,,Scattered Clouds,350,2012-12-27 21:44:00
3:42 PM,75.2,39.2,27,29.91,12.0,North,9.2,-,N/A,,Scattered Clouds,10,2012-12-27 22:42:00
4:43 PM,73.4,39.2,29,29.96,10.0,North,8.1,-,N/A,,Mostly Cloudy,10,2012-12-27 23:43:00
4:50 PM,75,60,49,29.91,19,NW,6.7,,,,Clear,320,2012-12-27 23:50:00
5:45 PM,68.0,42.8,40,29.92,10.0,South,4.6,-,N/A,,Mostly Cloudy,180,2012-12-28 00:45:00
6:46 PM,62.6,42.8,48,29.94,10.0,South,3.5,-,N/A,,Mostly Cloudy,170,2012-12-28 01:46:00
7:41 PM,60.8,50.0,68,30.01,10.0,Calm,Calm,-,N/A,,Scattered Clouds,0,2012-12-28 02:41:00
7:50 PM,68,60,68,29.95,2,NE,2.2,,,,Partly Cloudy,50,2012-12-28 02:50:00
8:50 PM,60.8,51.8,72,29.96,10.0,Calm,Calm,-,N/A,,Mostly Cloudy,0,2012-12-28 03:50:00
9:46 PM,59.0,51.8,77,29.97,10.0,Calm,Calm,-,N/A,,Scattered Clouds,0,2012-12-28 04:46:00
10:44 PM,55.4,50.0,82,30.04,10.0,South,4.6,-,N/A,,Scattered Clouds,180,2012-12-28 05:44:00
10:45 PM,63,60,88,29.94,2,SSE,2.2,,,,Scattered Clouds,150,2012-12-28 05:45:00